Wind_Speed
16 12 18 24 21 17 6 9 13 6 6 9 12 18 16 11 9 9 7 7 7 7 9 12 15 16 17 16 13 9 4 3 7 10 13 14 15 20 24 23 21 22 21 21
10 20 22 14 15 15 14 13 16 11 8 10 14 17 19 18 14 10 10 9 9 9 10 11 14 15 16 16 15 14 11 9 3 7 9 9 6 11 15 19 25 26 26 25
21 10 18 14 14 15 16 16 14 14 8 13 18 23 24 3 5 7 8 10 11 11 10 10 12 13 13 14 14 14 13 12 12 5 4 7 12 13 12 15 20 23 25 28
17 14 13 19 18 15 16 15 16 15 10 10 3 9 7 13 12 13 13 13 13 12 9 8 9 10 10 10 10 11 12 13 13 11 3 5 9 11 11 13 15 17 20 22
13 16 21 19 17 16 11 4 10 11 14 15 19 10 14 12 13 16 16 16 14 11 9 8 7 7 9 10 11 12 12 12 12 11 8 8 11 14 14 15 15 16 16 21
20 7 13 18 15 16 1 8 6 7 10 15 18 16 15 15 18 19 17 17 15 11 8 6 5 5 8 9 11 11 12 11 12 12 11 9 10 12 13 16 17 16 15 15
23 24 11 7 10 12 16 13 5 9 9 14 3 11 17 4 5 20 19 17 13 9 5 4 5 6 7 9 9 9 10 12 12 12 12 12 13 13 15 15 16 16 16 17
24 17 27 19 22 12 23 19 9 9 14 14 8 9 5 7 9 17 17 16 12 7 4 3 4 6 8 9 9 11 13 14 14 13 13 14 13 14 15 15 16 18 19 18
17 16 1 12 21 19 12 20 15 10 11 7 11 7 7 12 14 16 16 15 8 5 3 2 3 5 7 8 9 9 10 12 13 14 15 16 16 15 15 16 15 17 18 19
10 6 6 10 7 23 14 10 6 5 6 9 10 16 8 19 19 18 16 12 7 4 1 1 3 5 8 9 10 10 12 15 17 16 15 15 16 16 15 14 15 16 17 17
9 4 7 9 13 18 16 14 8 7 9 6 11 6 8 18 19 19 15 7 4 2 2 4 6 8 8 9 11 13 15 17 20 19 17 17 17 16 14 13 13 13 14 16
12 4 9 15 4 6 21 23 22 6 8 8 7 6 2 8 17 16 11 4 2 1 4 6 8 10 12 14 16 18 20 22 21 19 19 18 16 16 14 12 11 12 13 15
13 6 5 5 6 7 11 16 23 20 4 18 9 3 5 13 15 13 7 2 0 3 6 6 6 8 11 13 16 19 20 21 20 20 20 17 16 13 12 9 9 10 11 12
14 10 13 14 8 7 21 21 21 23 13 14 23 12 13 15 16 13 5 2 2 3 5 6 7 7 12 14 17 18 20 20 21 22 18 15 12 8 6 6 7 7 8 9
10 13 15 18 7 8 13 23 24 28 27 19 16 21 13 17 18 11 3 2 3 4 6 7 9 9 14 17 19 19 20 19 20 15 11 8 5 4 3 3 4 5 5 5
9 9 14 20 14 9 13 17 23 26 25 28 25 20 1 10 5 7 3 4 4 5 6 5 8 9 13 16 19 19 20 20 15 9 4 6 5 3 2 2 1 2 3 4
10 9 8 6 11 7 15 22 21 20 23 23 23 19 7 10 8 6 5 4 4 3 3 5 8 10 14 17 18 19 19 16 9 4 6 6 6 5 3 2 1 1 1 2
14 13 6 5 10 9 3 4 22 23 21 22 16 7 6 8 6 6 5 4 2 2 3 5 7 12 16 18 21 18 14 11 5 5 6 7 6 5 5 5 4 3 4 4
15 8 6 7 13 7 11 7 11 18 19 21 18 16 12 7 7 7 5 3 2 2 4 6 9 13 17 19 21 16 12 5 5 6 6 7 7 8 9 9 8 7 7 7
11 9 7 7 7 10 3 13 7 7 12 12 17 12 12 11 8 5 9 2 3 6 7 8 10 13 15 18 18 13 13 6 8 8 7 10 12 12 11 10 11 11 11 10
10 6 13 8 8 4 7 14 12 8 1 6 10 10 9 9 4 3 3 7 9 9 10 10 12 13 13 14 14 13 10 9 11 11 12 15 14 12 11 11 9 10 10 10
11 12 7 5 7 12 16 17 12 8 10 10 7 7 6 4 3 5 7 9 10 10 13 14 14 13 11 9 9 9 9 8 8 11 14 15 14 13 12 12 11 10 10 10
7 5 7 9 5 7 21 8 9 8 10 7 6 4 4 6 8 10 10 10 9 9 11 11 11 10 9 6 6 7 6 5 8 10 11 13 12 12 13 12 11 9 9 8
5 5 4 7 8 10 18 8 11 8 6 5 3 4 7 10 11 12 12 12 11 12 10 10 11 12 14 12 10 9 6 3 7 9 10 12 13 13 12 9 8 8 9 10
6 13 12 3 11 9 12 13 12 8 3 1 4 5 6 8 11 13 12 13 12 12 13 13 13 13 14 13 11 10 7 9 8 11 11 12 12 13 12 9 7 6 7 9
9 13 10 6 14 7 14 12 8 8 7 6 6 7 9 11 12 12 12 12 12 13 13 13 13 13 12 13 12 12 11 12 12 11 12 12 9 9 9 8 6 5 4 7
Wind_Direction
184 204 207 209 212 235 270 267 265 226 255 287 259 266 263 254 241 214 205 177 140 103 81 64 58 57 61 63 65 64 63 287 258 230 214 227 234 240 242 237 238 234 234 227
174 223 223 221 210 223 224 250 260 273 274 254 268 264 272 265 267 246 198 171 143 127 101 79 65 59 56 57 55 54 49 36 1 231 230 224 226 240 246 254 256 249 248 242
214 206 223 191 194 208 223 235 253 261 254 262 265 273 254 153 161 164 167 148 142 129 109 91 77 65 56 48 42 43 40 41 36 56 206 217 233 246 248 250 251 252 249 250
232 210 198 199 206 206 230 224 250 260 268 271 148 281 180 165 164 171 160 155 143 134 116 98 85 70 59 45 37 34 31 29 29 20 354 245 260 268 268 265 258 250 241 241
199 202 202 210 207 195 246 187 237 258 264 273 254 254 256 181 183 176 165 155 147 136 124 107 82 65 48 26 17 13 14 15 14 13 7 334 307 300 305 298 288 269 255 248
241 186 218 229 228 197 129 178 212 242 252 249 245 241 254 217 202 175 165 160 151 136 121 109 79 42 26 11 359 352 351 349 351 350 342 329 310 297 289 288 291 281 274 262
219 230 212 199 172 197 196 179 227 228 214 251 292 223 243 101 168 170 167 156 148 136 118 84 48 23 2 352 342 339 337 332 328 325 318 313 307 299 291 286 282 282 276 261
219 223 213 201 212 187 201 195 212 251 249 257 139 236 215 103 144 156 156 154 146 131 107 70 22 357 346 334 324 321 319 315 314 308 302 297 294 293 290 287 284 279 277 277
202 223 205 196 212 201 201 218 227 263 280 272 236 179 148 149 148 157 160 159 149 128 104 61 346 337 325 325 325 316 305 302 301 297 293 289 290 289 287 288 290 289 285 280
199 167 187 164 203 224 181 186 167 215 214 242 235 238 257 176 174 170 165 165 160 150 173 316 320 329 330 328 321 312 306 306 306 295 287 284 278 277 281 285 290 292 287 283
182 202 154 170 207 183 199 202 203 200 229 257 270 257 6 178 177 176 164 167 165 196 273 310 329 337 326 319 321 318 314 313 311 304 294 280 271 267 272 279 286 291 291 284
194 195 186 200 127 282 213 207 200 189 174 235 279 253 4 160 172 171 161 165 152 274 331 339 341 340 338 335 329 324 318 311 303 298 288 272 263 265 267 276 291 299 302 297
174 192 179 198 206 218 229 216 219 222 246 221 214 166 130 144 161 172 180 126 274 342 334 330 332 328 323 322 319 314 307 305 297 295 284 267 253 253 270 291 310 314 311 309
182 189 230 236 274 189 210 214 215 211 224 224 229 225 175 182 181 188 198 217 292 306 319 315 312 313 312 312 308 309 308 307 300 298 282 267 264 261 280 309 318 319 324 320
209 236 236 251 242 246 222 215 212 217 224 222 246 237 205 200 198 196 218 258 307 301 305 315 316 322 316 312 314 312 313 311 306 292 267 258 238 258 275 304 320 333 334 340
189 230 227 233 214 248 235 235 216 226 233 245 249 254 267 168 168 201 218 247 252 284 315 325 323 327 330 322 313 315 315 315 305 273 221 195 209 210 212 239 327 340 353 18
156 170 181 225 195 241 263 226 224 220 230 234 236 238 191 188 207 208 233 219 269 293 315 338 335 342 330 330 320 310 318 313 291 214 191 189 193 185 155 103 98 63 151 159
169 162 163 145 152 224 263 335 215 222 220 231 246 226 212 210 196 219 218 235 249 257 303 326 328 328 338 327 323 311 315 315 266 200 206 201 188 180 160 153 144 168 163 166
184 145 147 173 208 284 223 191 183 198 231 230 231 230 211 198 195 223 212 200 220 289 298 304 321 329 332 335 330 318 315 287 229 218 199 201 195 191 179 161 155 151 153 150
182 191 192 179 208 222 346 157 163 171 253 208 215 216 194 179 221 234 141 165 250 263 276 298 313 316 326 339 338 321 310 260 227 219 218 221 204 200 189 169 158 157 162 150
163 168 201 190 222 258 145 151 153 180 134 138 180 191 193 208 252 1 307 283 286 281 283 290 302 310 328 335 335 322 320 243 243 235 216 220 205 199 189 180 165 162 149 142
170 162 182 179 212 237 157 158 179 117 124 126 150 153 184 229 248 262 279 286 294 297 288 286 293 298 317 324 330 325 317 312 254 231 228 216 205 204 198 186 173 162 150 144
190 190 167 191 198 128 168 156 131 144 142 138 152 177 237 259 267 278 278 286 291 295 295 297 289 288 294 291 295 317 321 295 241 238 226 211 201 206 201 189 179 165 161 160
187 136 139 152 183 175 180 148 168 162 143 137 168 255 257 261 270 274 276 279 281 280 283 287 288 290 298 291 275 281 285 249 222 205 216 212 201 201 199 194 191 191 173 175
188 172 159 124 157 146 182 185 174 165 155 194 218 242 261 273 270 276 279 282 282 283 283 282 287 289 291 294 267 260 243 217 205 202 184 195 196 193 191 195 200 206 203 198
179 177 174 189 163 171 179 192 205 200 205 216 241 252 266 271 276 280 279 278 277 275 277 277 279 282 288 290 271 256 236 229 191 216 179 180 194 198 189 185 191 199 227 221
Height
756 764 758 752 752 747 757 758 755 746 749 757 751 744 736 731 735 744 747 753 758 761 764 765 764 763 763 762 762 762 763 764 765 767 768 770 771 773 775 777 779 781 782 784
758 754 736 739 743 754 756 760 756 746 748 756 748 743 731 729 728 731 742 751 759 763 766 768 768 768 767 766 766 764 764 763 762 762 765 767 768 770 771 772 774 775 777 778
734 728 732 748 752 756 752 755 753 752 747 747 749 741 722 731 743 747 749 752 756 761 767 769 769 771 770 770 768 766 766 764 763 761 763 764 765 765 766 767 767 767 768 771
731 722 735 744 745 748 751 741 749 750 754 751 745 740 716 735 746 749 754 755 760 764 767 769 769 770 771 771 770 768 766 765 764 764 762 763 761 760 760 760 760 761 761 763
723 730 733 740 738 742 743 740 749 749 750 746 739 750 714 709 741 745 749 753 758 763 765 768 769 770 770 771 770 769 767 766 765 764 765 764 763 761 760 761 759 759 758 757
717 721 724 725 729 737 738 749 754 755 750 748 734 730 709 701 715 735 744 751 757 762 767 769 770 769 769 770 770 769 767 765 763 762 762 762 760 759 758 757 757 755 755 754
724 724 725 728 737 738 742 747 754 752 751 730 713 721 705 717 710 725 740 750 758 763 766 767 768 769 770 769 769 768 767 765 764 762 760 759 758 756 754 754 752 750 749 747
714 721 718 721 721 735 737 734 743 752 725 708 718 724 698 721 722 728 741 750 758 762 765 766 767 768 767 767 767 764 763 761 761 760 759 757 755 753 751 749 747 746 746 745
695 703 704 708 713 716 741 736 733 751 742 742 704 707 728 732 737 741 746 752 757 760 762 763 764 766 765 764 762 761 761 760 759 757 757 755 753 750 748 746 744 743 741 740
689 708 709 714 718 711 723 729 762 768 752 737 696 695 687 729 734 739 745 748 755 757 759 759 759 759 759 758 758 758 757 755 754 754 752 750 747 746 744 741 738 737 736 735
690 693 721 719 712 707 719 729 734 733 731 720 703 684 704 707 721 732 740 749 751 754 756 757 757 756 756 755 753 751 749 747 746 748 745 742 740 740 738 737 735 732 730 729
688 694 703 709 711 710 696 707 717 729 738 725 715 701 713 704 717 729 743 749 750 752 752 751 752 752 752 751 750 748 746 743 740 739 740 737 735 736 735 731 729 728 726 724
691 705 715 716 720 719 714 707 699 711 717 710 721 706 718 718 728 736 742 743 745 746 746 746 749 751 749 748 747 746 744 740 738 735 734 732 731 731 732 729 726 724 722 721
681 688 684 681 679 687 709 701 701 702 716 704 686 696 722 725 730 735 735 737 741 743 743 745 746 747 748 747 746 744 739 736 734 731 729 729 730 730 730 727 725 724 722 721
686 689 691 693 694 695 689 692 695 696 693 697 688 688 697 715 719 721 731 735 737 739 740 741 744 743 744 743 741 738 735 732 728 726 725 727 729 729 728 727 725 724 723 719
683 693 695 696 696 707 700 688 685 689 689 684 683 685 682 696 717 726 729 731 734 735 736 739 742 741 740 739 736 734 731 727 724 722 723 724 726 727 726 725 724 723 724 720
696 701 701 701 708 714 708 685 683 685 685 683 685 683 688 710 717 721 725 728 730 731 735 738 739 738 737 734 732 729 727 725 723 722 723 723 725 725 724 725 726 724 724 723
698 707 712 714 715 711 674 681 671 678 683 684 688 687 696 704 714 721 720 723 726 730 732 733 735 735 733 731 728 725 723 723 722 721 722 723 722 723 723 724 725 726 725 725
692 696 712 710 700 664 672 687 679 679 682 681 683 688 696 708 719 717 718 721 724 728 730 730 730 731 729 728 725 722 720 721 722 721 721 722 722 722 723 723 724 725 726 726
693 691 689 702 689 672 664 670 676 681 678 679 680 689 697 705 708 703 713 721 723 724 726 727 726 727 726 725 723 721 719 720 719 718 719 721 721 721 722 722 722 724 726 726
690 695 687 692 682 667 677 678 681 690 675 682 684 690 696 702 705 709 716 718 719 720 721 722 722 723 722 724 723 721 718 717 717 717 717 717 719 720 721 722 723 725 726 727
666 674 682 696 691 677 673 680 679 672 683 686 688 694 700 704 710 715 717 717 716 715 716 716 716 719 719 720 720 719 716 715 715 715 716 715 717 719 720 721 723 724 725 727
665 650 660 663 663 668 670 667 676 680 686 689 691 696 702 705 707 710 712 713 712 712 713 712 713 714 715 717 716 715 714 712 712 713 714 715 716 718 720 721 722 723 724 727
664 664 665 669 672 668 667 673 679 685 689 691 694 699 703 703 704 705 706 706 706 707 708 710 711 711 709 710 712 712 711 708 711 711 712 714 714 716 718 720 722 724 723 726
658 660 660 662 664 668 670 675 679 686 691 692 696 698 699 701 703 703 703 703 704 705 706 706 706 706 706 705 707 708 708 708 709 710 709 712 714 715 716 718 719 722 722 725
647 647 649 652 658 659 667 675 680 686 690 691 693 695 697 698 699 700 701 702 702 702 703 704 704 704 703 703 702 704 704 706 704 710 705 707 711 713 714 715 718 720 722 724